[[[{"header":{"parameterUnit":"kt","parameterCategory":2,"dx":1,"dy":1,"la1":30.253999710083008,"la2":30.299108505249023,"lo1":-89.0895004272461,"lo2":-89.04439544677734,"nx":28,"ny":28,"refTime":"2022-09-24T21:00:00:Z","depth":"0","parameterNumber":2,"parameterNumberName":"U-component_of_CURRENTS"},"data":[-0.1586,-0.1575,-0.1586,-0.1621,-0.168,-0.1654,-0.1646,-0.1608,-0.1746,-0.2048,-0.2415,-0.2876,-0.2949,-0.3181,-0.2951,-0.2807,-0.2662,-0.2696,-0.2878,-0.2623,-0.2629,-0.2635,-0.2454,-0.2579,-0.2579,-0.2418,-0.2418,-0.2417,-0.16,-0.1611,-0.1686,-0.1754,-0.1811,-0.1888,-0.197,-0.1926,-0.2013,-0.2362,-0.2663,-0.3099,-0.3216,-0.3314,-0.323,-0.3161,-0.291,-0.3101,-0.2746,-0.2675,-0.2765,-0.2586,-0.2741,-0.2741,-0.2741,-0.2741,-0.2742,-0.2742,-0.1626,-0.1663,-0.1699,-0.1787,-0.1889,-0.1971,-0.1985,-0.2124,-0.227,-0.2442,-0.2807,-0.3118,-0.3327,-0.373,-0.3758,-0.3556,-0.3637,-0.3265,-0.3327,-0.3345,-0.3146,-0.3372,-0.3709,-0.3713,-0.3716,-0.3719,-0.3722,0,-0.162,-0.1627,-0.171,-0.1803,-0.1891,-0.2012,-0.2129,-0.2191,-0.2331,-0.249,-0.2765,-0.2993,-0.3416,-0.3555,-0.3887,-0.383,-0.3465,-0.3616,-0.3524,-0.2676,-0.269,-0.2576,-0.2605,-0.2915,-0.2915,-0.2915,-0.2915,-0.2914,-0.1547,-0.1608,-0.1743,-0.1804,-0.1866,-0.2004,-0.2078,-0.2205,-0.2281,-0.2518,-0.2582,-0.2917,-0.3123,-0.3574,-0.3571,-0.3759,-0.3544,-0.359,-0.3166,-0.312,-0.3135,-0.311,-0.3005,-0.2911,-0.2911,-0.2911,-0.2912,0,-0.1488,-0.155,-0.1694,-0.1835,-0.1885,-0.1985,-0.2123,-0.2213,-0.2312,-0.243,-0.247,-0.2648,-0.2895,-0.2998,-0.3114,-0.3086,-0.3173,-0.3264,-0.297,-0.2943,-0.2997,-0.3008,-0.3415,-0.3341,-0.3609,-0.3618,-0.3625,0,-0.1416,-0.1539,-0.1627,-0.1695,-0.1859,-0.1924,-0.2075,-0.2142,-0.2247,-0.233,-0.2353,-0.2444,-0.2437,-0.2606,-0.2547,-0.2763,-0.2715,-0.2649,-0.2664,-0.2308,-0.2298,-0.218,-0.2165,-0.2397,-0.2393,-0.239,-0.2387,0,-0.128,-0.1454,-0.1584,-0.1631,-0.1764,-0.1844,-0.1918,-0.2005,-0.2073,-0.2183,-0.2235,-0.2296,-0.2329,-0.2335,-0.2332,-0.2169,-0.2524,-0.2266,-0.249,-0.2508,-0.2226,-0.2213,-0.2408,-0.2382,-0.2381,-0.2379,-0.2378,0,-0.1194,-0.1268,-0.1435,-0.1573,-0.1613,-0.1705,-0.1843,-0.193,-0.2008,-0.2022,-0.2038,-0.1986,-0.2045,-0.1853,-0.1979,-0.1876,-0.1878,-0.1861,-0.1875,-0.201,-0.1893,-0.1964,-0.225,-0.2133,-0.2028,-0.2024,-0.2019,0,-0.1054,-0.1195,-0.1196,-0.1377,-0.1461,-0.1457,-0.1568,-0.1623,-0.1652,-0.1748,-0.1668,-0.1705,-0.155,-0.1536,-0.1555,-0.153,-0.1634,-0.1437,-0.1613,-0.1622,-0.1789,-0.2107,-0.1765,-0.2175,-0.1961,-0.1967,-0.1971,0,-0.0914,-0.097,-0.0993,-0.1052,-0.1106,-0.1163,-0.1277,-0.1362,-0.1432,-0.1441,-0.1549,-0.149,-0.1417,-0.1392,-0.1295,-0.1327,-0.1544,-0.1254,-0.1251,-0.146,-0.1798,-0.2003,-0.2063,-0.1438,-0.1443,-0.1446,-0.1925,0,-0.0793,-0.0845,-0.0892,-0.094,-0.0983,-0.1059,-0.1069,-0.1124,-0.1119,-0.1121,-0.118,-0.1103,-0.11,-0.1076,-0.1006,-0.1111,-0.1152,-0.1011,-0.0932,-0.1081,-0.1276,-0.1314,-0.0813,-0.081,-0.0806,-0.0804,0,0,-0.066,-0.0705,-0.0647,-0.0711,-0.0749,-0.0691,-0.0787,-0.0808,-0.0836,-0.0866,-0.0815,-0.083,-0.0764,-0.0816,-0.0851,-0.082,-0.0901,-0.0823,-0.0995,-0.1017,-0.1037,-0.123,-0.1269,-0.0798,-0.0797,-0.0795,-0.0794,0,-0.0598,-0.0568,-0.0613,-0.0633,-0.0639,-0.0636,-0.0659,-0.0666,-0.0675,-0.0754,-0.0665,-0.0658,-0.0687,-0.0649,-0.063,-0.0773,-0.0758,-0.0768,-0.092,-0.0965,-0.0991,-0.1014,-0.121,-0.1248,-0.0786,-0.0787,-0.0787,0,-0.0489,-0.0467,-0.0472,-0.0483,-0.0484,-0.0548,-0.045,-0.0489,-0.0551,-0.0427,-0.0524,-0.0471,-0.0418,-0.0479,-0.05,-0.0454,-0.0654,-0.0534,-0.055,-0.0571,-0.0612,-0.0643,-0.067,-0.0324,-0.0323,-0.0322,0,0,-0.0445,-0.0451,-0.0429,-0.0467,-0.0476,-0.0447,-0.0458,-0.0433,-0.0431,-0.0432,-0.0416,-0.039,-0.0384,-0.0393,-0.0382,-0.0453,-0.0477,-0.0484,-0.0505,-0.0524,-0.0555,-0.0601,-0.063,-0.0319,-0.0318,-0.0318,0,0,-0.0426,-0.0382,-0.0348,-0.0384,-0.0398,-0.0375,-0.0407,-0.0376,-0.0389,-0.0374,-0.0303,-0.0295,-0.0348,-0.0308,-0.0269,-0.0351,-0.0253,-0.0261,-0.0396,-0.0422,-0.0444,-0.0482,-0.015,0,0,0,0,0,-0.0342,-0.0387,-0.0357,-0.0356,-0.0347,-0.039,-0.039,-0.0346,-0.03,-0.0343,-0.0314,-0.024,-0.0271,-0.0235,-0.0233,-0.0292,-0.0272,-0.028,-0.0288,-0.0476,-0.0504,-0.0528,0,0,0,0,0,0,-0.0341,-0.0341,-0.0356,-0.0332,-0.0329,-0.0386,-0.0291,-0.0282,-0.0295,-0.0286,-0.0249,-0.0238,-0.0183,-0.0231,-0.023,-0.0288,-0.015,-0.0275,-0.0282,-0.0288,-0.0485,-0.0508,-0.0528,0,0,0,0,0,-0.034,-0.034,-0.0335,-0.0331,-0.0329,-0.0283,-0.0289,-0.028,-0.0296,-0.023,-0.0219,-0.0264,-0.0186,-0.0182,-0.023,-0.029,-0.015,-0.015,-0.028,-0.0285,-0.029,-0.0497,0,0,0,0,0,0,-0.034,-0.0338,-0.0333,-0.0331,-0.0304,-0.0281,-0.0275,-0.0279,-0.0238,-0.0228,-0.0238,-0.0232,-0.0189,-0.0185,-0.0182,-0.0296,-0.015,-0.015,-0.015,-0.0284,-0.0288,-0.0292,0,0,0,0,0,0,-0.0338,-0.0337,-0.0332,-0.0301,-0.0295,-0.0278,-0.0273,-0.0284,-0.0238,-0.0249,-0.0242,-0.0236,-0.0182,-0.0187,-0.0185,-0.0204,-0.015,-0.015,-0.015,-0.015,-0.0287,-0.0291,0,0,0,0,0,0,-0.0337,-0.0336,-0.0301,-0.0297,-0.0291,-0.0266,-0.0286,-0.0274,-0.0226,-0.0252,-0.0218,-0.0214,-0.0186,-0.0183,-0.0187,-0.0208,-0.0205,-0.015,-0.015,-0.015,-0.015,0,0,0,0,0,0,0,-0.0336,-0.0349,-0.0343,-0.0294,-0.0289,-0.031,-0.031,-0.031,-0.0225,-0.0222,-0.0219,-0.0216,-0.0149,-0.0149,-0.0149,-0.0212,0,0,-0.015,-0.015,0,0,0,0,0,0,0,0,-0.0348,-0.0349,-0.0343,-0.0342,-0.0342,-0.031,-0.031,-0.031,-0.0224,-0.0222,-0.0219,-0.0217,-0.0149,-0.0149,-0.0149,0,0,0,0,0,0,0,0,0,0,0,0,0,0,0,-0.0343,-0.0342,0,-0.031,-0.031,-0.031,-0.0224,-0.0222,-0.022,-0.0218,-0.0149,-0.0149,-0.0149,0,0,0,0,0,0,0,0,0,0,0,0,0,0,0,0,0,0,0,0,0,0,0,0,0,0,0,0,0,0,0,0,0,0,0,0,0,0,0,0,0,0,0,0,0,0,0,0,0,0,0,0,0,0,0,0,0,0,0,0,0,0,0,0,0,0,0,0,0]}],[{"header":{"parameterUnit":"kt","parameterCategory":2,"dx":1,"dy":1,"la1":30.253999710083008,"la2":30.299108505249023,"lo1":-89.0895004272461,"lo2":-89.04439544677734,"nx":28,"ny":28,"refTime":"2022-09-24T21:00:00:Z","depth":"0","parameterNumber":3,"parameterNumberName":"V-component_of_CURRENTS"},"data":[0.0295,0.0254,0.0238,0.0074,-0.0003,-0.0165,-0.0267,-0.0485,-0.0591,-0.0751,-0.0526,-0.032,0.0909,0.2553,0.3595,0.3728,0.418,0.4028,0.4396,0.3925,0.3889,0.3855,0.3904,0.4208,0.421,0.5019,0.5026,0.5031,0.0305,0.0298,0.0255,0.0187,0.0091,0.0083,-0.0057,-0.0166,-0.0447,-0.0605,-0.0797,-0.0125,0.0658,0.1564,0.2757,0.3228,0.3405,0.3424,0.3515,0.3702,0.3054,0.3071,0.3204,0.3204,0.3203,0.3203,0.3203,0.3202,0.0342,0.0343,0.033,0.0284,0.0234,0.0127,0.0071,-0.0029,-0.0174,-0.0364,-0.0386,-0.0397,0.0439,0.1387,0.1789,0.2659,0.2666,0.2946,0.304,0.3087,0.333,0.2549,0.2668,0.2668,0.2669,0.2669,0.267,0,0.0378,0.0386,0.0403,0.0351,0.0335,0.0314,0.0307,0.0247,0.0285,0.0187,0.0016,-0.0003,0.0438,0.0939,0.1651,0.1957,0.2685,0.2498,0.2788,0.2935,0.2954,0.3173,0.2412,0.2533,0.2533,0.2533,0.2533,0.2533,0.0425,0.0417,0.0451,0.0437,0.0473,0.049,0.0493,0.0592,0.0591,0.056,0.0518,0.0621,0.0641,0.115,0.1707,0.2185,0.2437,0.2478,0.2591,0.2808,0.2915,0.2972,0.3155,0.2532,0.2532,0.2532,0.2532,0,0.0453,0.0498,0.0515,0.0591,0.0599,0.0611,0.0674,0.0701,0.079,0.0777,0.0797,0.0951,0.1105,0.1465,0.179,0.209,0.2522,0.2445,0.2302,0.2308,0.2753,0.2838,0.314,0.3375,0.2647,0.2648,0.2649,0,0.0539,0.0552,0.0623,0.0635,0.0647,0.0755,0.0793,0.0894,0.1004,0.1004,0.1232,0.1222,0.1592,0.1738,0.198,0.2218,0.2214,0.2443,0.2461,0.2394,0.2386,0.2647,0.2735,0.2484,0.2484,0.2483,0.2483,0,0.0599,0.0669,0.0678,0.0712,0.0827,0.0858,0.0919,0.1075,0.1123,0.1293,0.1299,0.1564,0.1592,0.1841,0.2012,0.2039,0.2241,0.2297,0.2417,0.2414,0.2403,0.2396,0.2759,0.2483,0.2483,0.2483,0.2482,0,0.071,0.0729,0.0764,0.0838,0.0861,0.0912,0.1014,0.11,0.1277,0.1351,0.15,0.1602,0.1773,0.1824,0.2067,0.2013,0.2109,0.2199,0.2203,0.2246,0.2219,0.2207,0.2276,0.2542,0.2193,0.2191,0.2189,0,0.0739,0.0771,0.0835,0.0882,0.091,0.1026,0.1095,0.1222,0.1324,0.1418,0.1584,0.1666,0.1754,0.1783,0.1917,0.201,0.2105,0.2042,0.2161,0.2163,0.2189,0.2267,0.221,0.2246,0.2166,0.2169,0.217,0,0.0758,0.085,0.0849,0.0871,0.0989,0.1045,0.1131,0.1259,0.1314,0.1449,0.153,0.1684,0.1739,0.1795,0.1864,0.1972,0.206,0.1974,0.1978,0.1986,0.2203,0.2227,0.2244,0.2106,0.211,0.2113,0.2152,0,0.0842,0.0859,0.0869,0.093,0.0999,0.1061,0.1188,0.1249,0.1314,0.1415,0.1531,0.163,0.1724,0.176,0.1799,0.1914,0.1884,0.1912,0.1932,0.1969,0.1972,0.1986,0.1815,0.1814,0.1814,0.1814,0,0,0.0838,0.0857,0.0916,0.0951,0.1008,0.1128,0.1177,0.1264,0.1402,0.1451,0.1456,0.1612,0.167,0.1792,0.1803,0.1817,0.1837,0.1825,0.1931,0.1943,0.1955,0.1962,0.1976,0.1814,0.1814,0.1814,0.1814,0,0.0865,0.088,0.0883,0.0961,0.1073,0.115,0.1174,0.1307,0.1364,0.1448,0.1499,0.1575,0.1648,0.1727,0.1774,0.1809,0.1835,0.18,0.1832,0.1926,0.1939,0.1951,0.1959,0.1972,0.1814,0.1814,0.1814,0,0.089,0.0928,0.0941,0.1034,0.1109,0.1179,0.1251,0.134,0.1405,0.1466,0.1526,0.1575,0.1647,0.1709,0.1736,0.1742,0.1842,0.1801,0.1801,0.1816,0.1914,0.1928,0.194,0.1793,0.1792,0.1792,0,0,0.0902,0.0905,0.1033,0.1053,0.1093,0.1219,0.1277,0.1348,0.1435,0.1466,0.1521,0.1575,0.1636,0.1674,0.1717,0.1776,0.181,0.1798,0.1799,0.18,0.1814,0.1912,0.1924,0.1792,0.1792,0.1792,0,0,0.093,0.102,0.105,0.1069,0.118,0.1321,0.1349,0.1418,0.1485,0.148,0.1549,0.1566,0.162,0.1652,0.1641,0.1728,0.1723,0.1727,0.172,0.1721,0.1722,0.1729,0.1671,0,0,0,0,0,0.1018,0.1007,0.1032,0.1051,0.1178,0.1302,0.1326,0.1416,0.1431,0.1459,0.1512,0.1536,0.1657,0.1649,0.1665,0.1692,0.1788,0.1789,0.1789,0.1792,0.1794,0.1795,0,0,0,0,0,0,0.1026,0.1045,0.1035,0.1164,0.1197,0.13,0.1333,0.1357,0.143,0.1437,0.1525,0.1538,0.1579,0.1644,0.1658,0.1682,0.1667,0.1788,0.1789,0.1789,0.1793,0.1794,0.1795,0,0,0,0,0,0.1034,0.1049,0.1212,0.1167,0.1195,0.1326,0.1331,0.1352,0.1404,0.1494,0.1509,0.1471,0.1578,0.1594,0.1653,0.1675,0.1658,0.1663,0.1789,0.1789,0.1789,0.1793,0,0,0,0,0,0,0.104,0.1071,0.1221,0.1237,0.1162,0.1323,0.1343,0.1347,0.1455,0.1475,0.1439,0.1443,0.1578,0.159,0.1601,0.1671,0.165,0.1655,0.1658,0.1789,0.1789,0.179,0,0,0,0,0,0,0.1065,0.1081,0.1229,0.1216,0.123,0.132,0.1337,0.1388,0.1453,0.1392,0.1401,0.144,0.1548,0.1587,0.1596,0.1675,0.1644,0.1649,0.1653,0.1655,0.1789,0.179,0,0,0,0,0,0,0.1075,0.109,0.1212,0.1223,0.1235,0.1409,0.1366,0.1477,0.1483,0.1383,0.1483,0.1484,0.1544,0.1555,0.1592,0.1667,0.1673,0.1645,0.1648,0.165,0.1652,0,0,0,0,0,0,0,0.1084,0.0944,0.1139,0.1228,0.1239,0.1382,0.1385,0.1388,0.1483,0.1483,0.1483,0.1484,0.1617,0.1622,0.1628,0.166,0,0,0.1644,0.1646,0,0,0,0,0,0,0,0,0.0942,0.0944,0.114,0.1144,0.1147,0.1382,0.1385,0.1388,0.1483,0.1483,0.1483,0.1484,0.1618,0.1623,0.1627,0,0,0,0,0,0,0,0,0,0,0,0,0,0,0,0.114,0.1143,0,0.1383,0.1385,0.1387,0.1483,0.1483,0.1483,0.1483,0.162,0.1623,0.1627,0,0,0,0,0,0,0,0,0,0,0,0,0,0,0,0,0,0,0,0,0,0,0,0,0,0,0,0,0,0,0,0,0,0,0,0,0,0,0,0,0,0,0,0,0,0,0,0,0,0,0,0,0,0,0,0,0,0,0,0,0,0,0,0,0,0,0,0,0]}]],[[{"header":{"parameterUnit":"kt","parameterCategory":2,"dx":1,"dy":1,"la1":30.253999710083008,"la2":30.299108505249023,"lo1":-89.0895004272461,"lo2":-89.04439544677734,"nx":28,"ny":28,"refTime":"2022-09-24T21:00:00:Z","depth":"2","parameterNumber":2,"parameterNumberName":"U-component_of_CURRENTS"},"data":[-0.2919,-0.2952,-0.3008,-0.3081,-0.3121,-0.3184,-0.3287,-0.346,-0.3418,-0.317,-0.2821,-0.2669,-0.2518,-0.1919,-0.183,-0.1688,-0.1826,-0.1625,-0.2564,-0.2244,-0.2281,-0.2353,-0.2305,0,0,0,0,0,-0.2961,-0.2996,-0.3057,-0.314,-0.3237,-0.3279,-0.3538,-0.363,-0.3859,-0.3805,-0.3862,-0.314,-0.2871,-0.2675,-0.2288,-0.226,-0.2099,-0.2235,-0.193,-0.1974,-0.2014,-0.1949,-0.158,-0.1577,-0.1575,-0.1573,0,0,-0.3026,-0.3053,-0.3111,-0.317,-0.326,-0.3417,-0.3481,-0.372,-0.394,-0.4092,-0.4253,-0.4094,-0.3794,-0.3235,-0.3081,-0.2905,-0.312,-0.2881,-0.2883,-0.2894,-0.2884,-0.2864,-0.2759,-0.2764,-0.2769,-0.2773,-0.2776,0,-0.3115,-0.3119,-0.3168,-0.3239,-0.3286,-0.3401,-0.3522,-0.3655,-0.3869,-0.4037,-0.4289,-0.4364,-0.4241,-0.3875,-0.3637,-0.3479,-0.3253,-0.3161,-0.3645,-0.2724,-0.2686,-0.2658,-0.2678,-0.2556,-0.256,-0.2563,-0.2565,-0.2567,-0.318,-0.3194,-0.3269,-0.3298,-0.3308,-0.3345,-0.3431,-0.3552,-0.3702,-0.3932,-0.4049,-0.4127,-0.4218,-0.4116,-0.3839,-0.3642,-0.3727,-0.3247,-0.3134,-0.3552,-0.3527,-0.3522,-0.3517,-0.2613,-0.2607,-0.2602,-0.2599,0,-0.3214,-0.3274,-0.3311,-0.3392,-0.3405,-0.3406,-0.3518,-0.3613,-0.3688,-0.3847,-0.3866,-0.3978,-0.3995,-0.3898,-0.3783,-0.3669,-0.359,-0.3565,-0.3154,-0.3096,-0.3501,-0.35,-0.3553,-0.3556,-0.3559,-0.3562,-0.3564,0,-0.3303,-0.3307,-0.3395,-0.3411,-0.3441,-0.3506,-0.3544,-0.3588,-0.3697,-0.382,-0.3806,-0.3905,-0.3765,-0.3759,-0.3629,-0.3573,-0.3543,-0.3484,-0.3465,-0.3097,-0.3074,-0.3394,-0.3396,-0.3388,-0.3389,-0.3389,-0.3389,0,-0.3321,-0.3418,-0.3442,-0.347,-0.3583,-0.356,-0.359,-0.3666,-0.373,-0.3757,-0.3812,-0.3773,-0.3759,-0.3664,-0.3583,-0.3533,-0.3511,-0.3441,-0.3448,-0.3451,-0.3126,-0.3103,-0.339,-0.339,-0.339,-0.339,-0.339,0,-0.3393,-0.3459,-0.351,-0.3584,-0.3601,-0.3615,-0.3653,-0.3694,-0.375,-0.3741,-0.3723,-0.3719,-0.3689,-0.3615,-0.3539,-0.3527,-0.344,-0.3397,-0.3393,-0.3521,-0.3478,-0.3048,-0.2979,-0.332,-0.332,-0.332,-0.3319,0,-0.3387,-0.3481,-0.3526,-0.3564,-0.3609,-0.3626,-0.3666,-0.3691,-0.3686,-0.37,-0.3651,-0.3647,-0.3565,-0.353,-0.3496,-0.346,-0.3418,-0.3428,-0.3376,-0.3376,-0.3448,-0.3472,-0.3061,-0.299,-0.3318,-0.3319,-0.3319,0,-0.3384,-0.3496,-0.3484,-0.3506,-0.3571,-0.3606,-0.3623,-0.366,-0.3675,-0.3613,-0.3616,-0.3565,-0.3525,-0.3525,-0.348,-0.346,-0.3413,-0.3402,-0.3402,-0.3361,-0.3359,-0.3455,-0.3464,-0.3372,-0.3373,-0.3373,-0.3318,0,-0.3446,-0.3464,-0.3483,-0.3547,-0.3576,-0.3599,-0.3643,-0.3625,-0.3565,-0.3576,-0.3533,-0.3499,-0.348,-0.3445,-0.3426,-0.342,-0.3384,-0.3381,-0.3375,-0.3382,-0.3354,-0.3355,-0.3362,-0.3363,-0.3364,-0.3364,0,0,-0.3395,-0.3448,-0.348,-0.3533,-0.3549,-0.3556,-0.3589,-0.3599,-0.3591,-0.3574,-0.3508,-0.3469,-0.3438,-0.3447,-0.3426,-0.3417,-0.3387,-0.3382,-0.3381,-0.3383,-0.3385,-0.3359,-0.3358,-0.3365,-0.3366,-0.3366,-0.3366,0,-0.3436,-0.3441,-0.3466,-0.3509,-0.3546,-0.3576,-0.357,-0.3595,-0.3556,-0.3543,-0.3497,-0.3458,-0.3418,-0.3417,-0.3414,-0.3421,-0.3374,-0.3381,-0.3392,-0.3386,-0.3386,-0.3387,-0.3361,-0.3361,-0.3368,-0.3368,-0.3368,0,-0.3438,-0.348,-0.3482,-0.3555,-0.3567,-0.3616,-0.3586,-0.3592,-0.3599,-0.3549,-0.3491,-0.3455,-0.345,-0.3424,-0.3402,-0.3399,-0.3372,-0.3373,-0.3371,-0.3412,-0.3408,-0.3409,-0.341,-0.3397,-0.3397,-0.3397,0,0,-0.3464,-0.348,-0.3555,-0.357,-0.3589,-0.3602,-0.3606,-0.359,-0.3582,-0.3552,-0.3503,-0.3461,-0.3449,-0.3415,-0.3411,-0.3396,-0.3408,-0.3373,-0.3372,-0.337,-0.3409,-0.3406,-0.3407,-0.3396,-0.3396,-0.3396,0,0,-0.3472,-0.3542,-0.3529,-0.3566,-0.3603,-0.3654,-0.3636,-0.3618,-0.3573,-0.3521,-0.3484,-0.3469,-0.3421,-0.3421,-0.3413,-0.3378,-0.339,-0.3392,-0.3352,-0.335,-0.3349,-0.3393,-0.3371,0,0,0,0,0,-0.353,-0.3551,-0.354,-0.3551,-0.3608,-0.3677,-0.368,-0.3637,-0.357,-0.3562,-0.3505,-0.3466,-0.3412,-0.3404,-0.34,-0.3361,-0.3383,-0.3386,-0.3388,-0.3335,-0.3334,-0.3332,0,0,0,0,0,0,-0.3535,-0.3553,-0.354,-0.36,-0.3612,-0.3675,-0.3615,-0.3605,-0.3568,-0.3552,-0.3483,-0.3467,-0.3447,-0.3403,-0.34,-0.3363,-0.3372,-0.3384,-0.3386,-0.3388,-0.3335,-0.3333,-0.3332,0,0,0,0,0,-0.354,-0.3554,-0.365,-0.3597,-0.3608,-0.3579,-0.361,-0.36,-0.3545,-0.3532,-0.3512,-0.3504,-0.3452,-0.3441,-0.3401,-0.3364,-0.3373,-0.3373,-0.3385,-0.3387,-0.3388,-0.3334,0,0,0,0,0,0,-0.3543,-0.3537,-0.3651,-0.3653,-0.3552,-0.357,-0.357,-0.3597,-0.3522,-0.3509,-0.3557,-0.3546,-0.3456,-0.3447,-0.344,-0.3365,-0.3375,-0.3374,-0.3373,-0.3387,-0.3388,-0.3389,0,0,0,0,0,0,-0.353,-0.3539,-0.3651,-0.3596,-0.3591,-0.3563,-0.3563,-0.3571,-0.3519,-0.3548,-0.3539,-0.3552,-0.344,-0.3452,-0.3446,-0.3462,-0.3376,-0.3375,-0.3374,-0.3374,-0.3387,-0.3388,0,0,0,0,0,0,-0.3533,-0.3541,-0.3594,-0.3591,-0.3586,-0.36,-0.3564,-0.36,-0.3539,-0.3549,-0.3526,-0.352,-0.3445,-0.3439,-0.345,-0.347,-0.3464,-0.3376,-0.3375,-0.3375,-0.3375,0,0,0,0,0,0,0,-0.3535,-0.3492,-0.3646,-0.3586,-0.3582,-0.3673,-0.3673,-0.3673,-0.3538,-0.3533,-0.3527,-0.3523,-0.3381,-0.338,-0.3379,-0.3477,0,0,-0.3376,-0.3375,0,0,0,0,0,0,0,0,-0.3488,-0.3491,-0.3646,-0.3647,-0.3647,-0.3673,-0.3673,-0.3673,-0.3537,-0.3533,-0.3528,-0.3525,-0.3381,-0.338,-0.3379,0,0,0,0,0,0,0,0,0,0,0,0,0,0,0,-0.3646,-0.3647,0,-0.3673,-0.3673,-0.3673,-0.3536,-0.3533,-0.3529,-0.3526,-0.338,-0.338,-0.3379,0,0,0,0,0,0,0,0,0,0,0,0,0,0,0,0,0,0,0,0,0,0,0,0,0,0,0,0,0,0,0,0,0,0,0,0,0,0,0,0,0,0,0,0,0,0,0,0,0,0,0,0,0,0,0,0,0,0,0,0,0,0,0,0,0,0,0,0,0]}],[{"header":{"parameterUnit":"kt","parameterCategory":2,"dx":1,"dy":1,"la1":30.253999710083008,"la2":30.299108505249023,"lo1":-89.0895004272461,"lo2":-89.04439544677734,"nx":28,"ny":28,"refTime":"2022-09-24T21:00:00:Z","depth":"2","parameterNumber":3,"parameterNumberName":"V-component_of_CURRENTS"},"data":[-0.1889,-0.2005,-0.2082,-0.2304,-0.2401,-0.254,-0.2569,-0.2499,-0.2252,-0.1758,-0.1396,-0.0967,-0.0395,-0.0073,0.0374,0.0718,0.0775,0.0779,0.0961,0.0529,0.0523,0.0803,0.0539,0,0,0,0,0,-0.1861,-0.194,-0.2056,-0.2167,-0.228,-0.2263,-0.2266,-0.2263,-0.217,-0.1723,-0.1368,-0.0843,-0.0328,0.0222,0.0734,0.1116,0.1001,0.1269,0.0961,0.0954,0.095,0.079,0.1005,0.1007,0.1009,0.1011,0,0,-0.1809,-0.1865,-0.1932,-0.2036,-0.2093,-0.2133,-0.2182,-0.2084,-0.198,-0.1673,-0.1307,-0.0866,-0.0421,0.0365,0.082,0.1211,0.1161,0.1208,0.1193,0.1182,0.1046,0.0965,0.132,0.1323,0.1326,0.1328,0.133,0,-0.1745,-0.1761,-0.1804,-0.1906,-0.1953,-0.1977,-0.1962,-0.1925,-0.1749,-0.159,-0.1259,-0.0961,-0.0251,0.0197,0.0829,0.1041,0.1096,0.1203,0.1329,0.0604,0.0508,0.0531,0.0501,0.08,0.08,0.08,0.08,0.08,-0.1639,-0.1687,-0.1721,-0.1767,-0.1786,-0.1812,-0.1836,-0.1733,-0.168,-0.1363,-0.1265,-0.081,-0.049,0.0292,0.0615,0.1078,0.1066,0.1182,0.0943,0.0923,0.096,0.0916,0.0875,0.08,0.08,0.08,0.08,0,-0.1582,-0.1584,-0.1638,-0.1649,-0.1653,-0.169,-0.1657,-0.165,-0.1519,-0.1373,-0.1301,-0.0963,-0.0529,-0.0163,0.0299,0.0465,0.0825,0.0937,0.0635,0.0677,0.0857,0.0824,0.1275,0.1283,0.1289,0.1295,0.1299,0,-0.148,-0.1518,-0.1518,-0.1558,-0.1602,-0.157,-0.1581,-0.1538,-0.1415,-0.1334,-0.1159,-0.0991,-0.065,-0.0322,-0.0132,0.0298,0.0312,0.0441,0.0526,0.0269,0.0255,0.025,0.0229,0.0395,0.0391,0.0388,0.0386,0,-0.14,-0.1425,-0.1476,-0.1486,-0.1489,-0.1502,-0.1491,-0.143,-0.1398,-0.1226,-0.1134,-0.0907,-0.0728,-0.0505,-0.0227,-0.0323,0.0218,0.0138,0.0379,0.0389,0.0324,0.032,0.0382,0.0381,0.038,0.0379,0.0378,0,-0.1326,-0.1354,-0.1408,-0.1421,-0.1426,-0.1437,-0.1418,-0.14,-0.1279,-0.1223,-0.1095,-0.0979,-0.0789,-0.0804,-0.0438,-0.0566,-0.0419,-0.0271,-0.0251,-0.0071,-0.0051,0.0066,0.017,-0.0021,-0.0026,-0.0031,-0.0035,0,-0.127,-0.132,-0.131,-0.1349,-0.1376,-0.1343,-0.1343,-0.131,-0.1259,-0.1172,-0.1048,-0.0956,-0.0968,-0.0916,-0.0813,-0.0605,-0.0495,-0.0696,-0.0238,-0.0223,-0.0133,-0.0021,-0.0262,0.0096,-0.0093,-0.0087,-0.0083,0,-0.1231,-0.1251,-0.1262,-0.1281,-0.1277,-0.127,-0.127,-0.124,-0.1227,-0.1162,-0.1084,-0.1018,-0.0957,-0.0899,-0.0846,-0.0739,-0.0583,-0.0699,-0.0688,-0.0532,-0.0217,-0.0113,-0.0063,-0.0557,-0.0552,-0.0548,-0.0129,0,-0.1191,-0.1219,-0.1229,-0.1245,-0.1234,-0.1242,-0.1212,-0.1204,-0.119,-0.1149,-0.107,-0.0978,-0.0883,-0.0876,-0.0856,-0.0753,-0.0695,-0.068,-0.0627,-0.0624,-0.0442,-0.0407,-0.0791,-0.0788,-0.0786,-0.0785,0,0,-0.1157,-0.1186,-0.117,-0.1183,-0.1184,-0.1148,-0.1161,-0.1135,-0.1092,-0.1073,-0.1073,-0.092,-0.087,-0.0783,-0.0815,-0.0782,-0.0669,-0.0774,-0.0653,-0.064,-0.0626,-0.0453,-0.0421,-0.0781,-0.078,-0.078,-0.0779,0,-0.1142,-0.1153,-0.1175,-0.1163,-0.1149,-0.1121,-0.1131,-0.1094,-0.1086,-0.1054,-0.1008,-0.0955,-0.0867,-0.0805,-0.0759,-0.0765,-0.0629,-0.0761,-0.0798,-0.0643,-0.0632,-0.0621,-0.0451,-0.0423,-0.0774,-0.0775,-0.0775,0,-0.1117,-0.1119,-0.1129,-0.1117,-0.1095,-0.1089,-0.106,-0.1052,-0.1051,-0.0971,-0.0962,-0.0902,-0.0809,-0.0768,-0.0744,-0.0726,-0.0581,-0.0676,-0.0684,-0.0647,-0.048,-0.047,-0.0461,-0.0571,-0.0571,-0.0571,0,0,-0.1107,-0.1127,-0.1097,-0.111,-0.1103,-0.1063,-0.1049,-0.1038,-0.1,-0.099,-0.0939,-0.088,-0.0816,-0.079,-0.0718,-0.0671,-0.0544,-0.0657,-0.0667,-0.0675,-0.0644,-0.0481,-0.0472,-0.0571,-0.0571,-0.0571,0,0,-0.1091,-0.1086,-0.1086,-0.1102,-0.1073,-0.1016,-0.1015,-0.1001,-0.0967,-0.0979,-0.0903,-0.0885,-0.0845,-0.0782,-0.0791,-0.0712,-0.0665,-0.066,-0.0771,-0.0781,-0.079,-0.0774,-0.0723,0,0,0,0,0,-0.1068,-0.1087,-0.1087,-0.1087,-0.1053,-0.1015,-0.1005,-0.0986,-0.0995,-0.0994,-0.0957,-0.0906,-0.0779,-0.0784,-0.0759,-0.0763,-0.0567,-0.0568,-0.0568,-0.0697,-0.0709,-0.0719,0,0,0,0,0,0,-0.1068,-0.1068,-0.1086,-0.1036,-0.1027,-0.1014,-0.1005,-0.0997,-0.0996,-0.0998,-0.0915,-0.0901,-0.0842,-0.0791,-0.0769,-0.0775,-0.073,-0.0568,-0.0568,-0.0569,-0.0701,-0.0711,-0.0719,0,0,0,0,0,-0.1067,-0.1067,-0.1036,-0.1033,-0.1026,-0.0997,-0.1006,-0.1,-0.1001,-0.0911,-0.09,-0.0996,-0.0842,-0.0822,-0.0778,-0.0788,-0.0745,-0.0737,-0.0568,-0.0568,-0.0569,-0.0706,0,0,0,0,0,0,-0.1067,-0.1038,-0.1032,-0.1026,-0.1056,-0.0997,-0.0994,-0.1003,-0.0913,-0.0903,-0.0985,-0.0986,-0.0841,-0.0825,-0.081,-0.0798,-0.0756,-0.0748,-0.0744,-0.0568,-0.0569,-0.0569,0,0,0,0,0,0,-0.1038,-0.1034,-0.1029,-0.1059,-0.1056,-0.0998,-0.0995,-0.0909,-0.091,-0.0989,-0.0989,-0.0986,-0.0859,-0.0828,-0.0815,-0.068,-0.0765,-0.0758,-0.0753,-0.0749,-0.0568,-0.0569,0,0,0,0,0,0,-0.1035,-0.1031,-0.106,-0.1058,-0.1056,-0.0988,-0.0917,-0.0879,-0.0961,-0.0991,-0.0966,-0.0969,-0.0861,-0.0848,-0.0819,-0.069,-0.0683,-0.0765,-0.076,-0.0756,-0.0754,0,0,0,0,0,0,0,-0.1032,-0.1076,-0.1072,-0.1057,-0.1055,-0.0977,-0.0975,-0.0973,-0.0961,-0.0964,-0.0966,-0.0968,-0.0808,-0.08,-0.0792,-0.0697,0,0,-0.0766,-0.0762,0,0,0,0,0,0,0,0,-0.1076,-0.1076,-0.1071,-0.1071,-0.107,-0.0977,-0.0975,-0.0973,-0.0962,-0.0964,-0.0965,-0.0967,-0.0806,-0.0799,-0.0793,0,0,0,0,0,0,0,0,0,0,0,0,0,0,0,-0.1071,-0.1071,0,-0.0976,-0.0975,-0.0973,-0.0962,-0.0963,-0.0965,-0.0966,-0.0804,-0.0799,-0.0793,0,0,0,0,0,0,0,0,0,0,0,0,0,0,0,0,0,0,0,0,0,0,0,0,0,0,0,0,0,0,0,0,0,0,0,0,0,0,0,0,0,0,0,0,0,0,0,0,0,0,0,0,0,0,0,0,0,0,0,0,0,0,0,0,0,0,0,0,0]}]],[[{"header":{"parameterUnit":"kt","parameterCategory":2,"dx":1,"dy":1,"la1":30.253999710083008,"la2":30.299108505249023,"lo1":-89.0895004272461,"lo2":-89.04439544677734,"nx":28,"ny":28,"refTime":"2022-09-24T21:00:00:Z","depth":"4","parameterNumber":2,"parameterNumberName":"U-component_of_CURRENTS"},"data":[-0.1565,-0.1582,-0.1566,-0.1386,-0.1322,-0.1276,-0.132,-0.143,-0.1362,-0.1535,-0.1511,-0.1683,-0.1681,-0.1733,-0.1703,-0.1738,-0.2153,-0.2015,-0.2012,-0.2833,-0.2887,-0.2934,-0.2895,0,0,0,0,0,-0.1648,-0.1614,-0.1636,-0.1635,-0.1648,-0.1656,-0.1743,-0.1849,-0.1989,-0.1782,-0.1897,-0.1801,-0.1786,-0.179,-0.1771,-0.1957,-0.2413,-0.1935,-0.2628,-0.2866,-0.2926,-0.2868,0,0,0,0,0,0,-0.175,-0.1752,-0.1849,-0.1895,-0.1929,-0.1859,-0.197,-0.1928,-0.1963,-0.2189,-0.1962,-0.2126,-0.2382,-0.2376,-0.2271,-0.2378,-0.2369,-0.2516,-0.259,-0.2649,-0.2539,-0.216,-0.1714,0,0,0,0,0,-0.1833,-0.1932,-0.2004,-0.2082,-0.2139,-0.2178,-0.2247,-0.2249,-0.2407,-0.2691,-0.2508,-0.2565,-0.2618,-0.2769,-0.2888,-0.2775,-0.3531,-0.328,-0.3314,-0.3435,-0.3206,-0.316,-0.318,-0.315,-0.3157,-0.3162,-0.3165,0,-0.1948,-0.1993,-0.2186,-0.222,-0.2304,-0.2428,-0.2466,-0.2686,-0.2725,-0.2909,-0.2869,-0.3146,-0.3335,-0.3201,-0.3467,-0.3425,-0.3384,-0.3433,-0.3564,-0.3301,-0.324,-0.3245,-0.3246,-0.3213,-0.3209,-0.3205,-0.3201,0,-0.1994,-0.2118,-0.2207,-0.2385,-0.2439,-0.2503,-0.2657,-0.2727,-0.3028,-0.3117,-0.3271,-0.3651,-0.376,-0.4046,-0.4208,-0.4146,-0.4017,-0.3833,-0.415,-0.4103,-0.3342,-0.3324,-0.3291,-0.3273,-0.3259,-0.3246,-0.3236,0,-0.2098,-0.2162,-0.2345,-0.2384,-0.2472,-0.2581,-0.2718,-0.2882,-0.3064,-0.3123,-0.3595,-0.364,-0.4216,-0.4314,-0.4272,-0.4111,-0.4439,-0.3924,-0.3855,-0.4334,-0.4312,-0.4259,-0.4225,-0.4559,-0.4561,-0.4562,-0.4563,0,-0.215,-0.2276,-0.2353,-0.2391,-0.2531,-0.2609,-0.2688,-0.2891,-0.2955,-0.3334,-0.3495,-0.3833,-0.4042,-0.4191,-0.4217,-0.4284,-0.4396,-0.4443,-0.3921,-0.3876,-0.4254,-0.4218,-0.4565,-0.4565,-0.4565,-0.4566,-0.4566,0,-0.2224,-0.2293,-0.2383,-0.2493,-0.252,-0.2587,-0.2754,-0.2826,-0.305,-0.3185,-0.3457,-0.3592,-0.385,-0.3839,-0.4111,-0.4141,-0.412,-0.4136,-0.4133,-0.3613,-0.3446,-0.3667,-0.3925,-0.3922,-0.3919,-0.3916,-0.3914,0,-0.2236,-0.2331,-0.2382,-0.2465,-0.2505,-0.2594,-0.2665,-0.2787,-0.2908,-0.3049,-0.3198,-0.3369,-0.3408,-0.3554,-0.3723,-0.3799,-0.3883,-0.3814,-0.3892,-0.3885,-0.345,-0.3593,-0.4051,-0.3875,-0.388,-0.3884,-0.3886,0,-0.2227,-0.2351,-0.2365,-0.2408,-0.249,-0.2523,-0.2618,-0.2723,-0.2827,-0.2951,-0.3088,-0.3218,-0.3325,-0.3357,-0.3419,-0.3582,-0.3783,-0.3628,-0.3631,-0.3548,-0.4083,-0.3595,-0.3568,-0.401,-0.4018,-0.4025,-0.3859,0,-0.2246,-0.2312,-0.234,-0.2413,-0.2457,-0.2503,-0.2555,-0.263,-0.2687,-0.2745,-0.2923,-0.2935,-0.3057,-0.3096,-0.3082,-0.335,-0.3301,-0.3341,-0.3287,-0.3481,-0.3356,-0.3378,-0.3044,-0.304,-0.3036,-0.3033,0,0,-0.2207,-0.2259,-0.2313,-0.2355,-0.2387,-0.2438,-0.2476,-0.2518,-0.2563,-0.262,-0.2606,-0.2777,-0.2738,-0.2912,-0.2976,-0.2946,-0.3016,-0.3034,-0.3349,-0.3385,-0.3418,-0.3315,-0.3341,-0.3026,-0.3024,-0.3023,-0.3022,0,-0.2178,-0.2242,-0.2294,-0.2331,-0.2394,-0.2408,-0.2438,-0.2476,-0.2506,-0.2566,-0.2564,-0.2638,-0.2695,-0.2724,-0.2748,-0.2892,-0.2908,-0.2965,-0.3136,-0.3311,-0.3351,-0.3387,-0.3295,-0.3321,-0.3012,-0.3013,-0.3013,0,-0.2147,-0.2181,-0.2222,-0.2281,-0.2312,-0.2349,-0.2344,-0.2403,-0.2439,-0.24,-0.2459,-0.2489,-0.249,-0.2586,-0.2625,-0.2591,-0.2807,-0.2729,-0.2747,-0.274,-0.2913,-0.2959,-0.2999,-0.2485,-0.2484,-0.2483,0,0,-0.2126,-0.2187,-0.222,-0.2273,-0.2297,-0.2326,-0.2357,-0.2375,-0.2389,-0.2405,-0.2408,-0.2424,-0.246,-0.2497,-0.249,-0.2582,-0.2555,-0.2673,-0.2697,-0.2718,-0.2723,-0.29,-0.2943,-0.248,-0.2479,-0.2479,0,0,-0.2099,-0.2156,-0.2182,-0.224,-0.2276,-0.2283,-0.2327,-0.2344,-0.2373,-0.2388,-0.2358,-0.2356,-0.2432,-0.2402,-0.2356,-0.2526,-0.2412,-0.2421,-0.2588,-0.2618,-0.2642,-0.2649,-0.2308,0,0,0,0,0,-0.2104,-0.2149,-0.2172,-0.2187,-0.2246,-0.2277,-0.2285,-0.2311,-0.2326,-0.2357,-0.2358,-0.2336,-0.2378,-0.2335,-0.2334,-0.247,-0.2432,-0.2441,-0.2449,-0.2679,-0.2711,-0.2738,0,0,0,0,0,0,-0.211,-0.2124,-0.2171,-0.2179,-0.2194,-0.2274,-0.2255,-0.2262,-0.2323,-0.2326,-0.2335,-0.2334,-0.2303,-0.2333,-0.2333,-0.2465,-0.2308,-0.2436,-0.2443,-0.2449,-0.269,-0.2716,-0.2739,0,0,0,0,0,-0.2114,-0.2126,-0.2218,-0.2178,-0.2191,-0.2235,-0.2255,-0.2261,-0.2313,-0.2291,-0.2293,-0.234,-0.2302,-0.2303,-0.2333,-0.2467,-0.2307,-0.2308,-0.244,-0.2446,-0.2451,-0.2703,0,0,0,0,0,0,-0.2117,-0.212,-0.2221,-0.2226,-0.2179,-0.2232,-0.2241,-0.2259,-0.2274,-0.2279,-0.2288,-0.2289,-0.2302,-0.2303,-0.2304,-0.2473,-0.2307,-0.2307,-0.2308,-0.2445,-0.2449,-0.2453,0,0,0,0,0,0,-0.2115,-0.2124,-0.2223,-0.2222,-0.2227,-0.2229,-0.2237,-0.2239,-0.2273,-0.2268,-0.2271,-0.2288,-0.2296,-0.2303,-0.2303,-0.2305,-0.2307,-0.2307,-0.2307,-0.2307,-0.2448,-0.2452,0,0,0,0,0,0,-0.2119,-0.2127,-0.222,-0.2224,-0.2228,-0.2281,-0.2229,-0.2283,-0.2296,-0.2265,-0.2297,-0.2297,-0.2295,-0.2296,-0.2303,-0.2305,-0.2305,-0.2307,-0.2307,-0.2307,-0.2307,0,0,0,0,0,0,0,-0.2122,-0.2065,-0.2199,-0.2226,-0.2229,-0.2273,-0.2274,-0.2275,-0.2296,-0.2297,-0.2297,-0.2297,-0.2306,-0.2306,-0.2306,-0.2304,0,0,-0.2307,-0.2307,0,0,0,0,0,0,0,0,-0.2062,-0.2064,-0.2199,-0.2201,-0.2202,-0.2273,-0.2274,-0.2274,-0.2296,-0.2297,-0.2297,-0.2297,-0.2306,-0.2306,-0.2306,0,0,0,0,0,0,0,0,0,0,0,0,0,0,0,-0.2199,-0.2201,0,-0.2273,-0.2274,-0.2274,-0.2297,-0.2297,-0.2297,-0.2297,-0.2306,-0.2306,-0.2306,0,0,0,0,0,0,0,0,0,0,0,0,0,0,0,0,0,0,0,0,0,0,0,0,0,0,0,0,0,0,0,0,0,0,0,0,0,0,0,0,0,0,0,0,0,0,0,0,0,0,0,0,0,0,0,0,0,0,0,0,0,0,0,0,0,0,0,0,0]}],[{"header":{"parameterUnit":"kt","parameterCategory":2,"dx":1,"dy":1,"la1":30.253999710083008,"la2":30.299108505249023,"lo1":-89.0895004272461,"lo2":-89.04439544677734,"nx":28,"ny":28,"refTime":"2022-09-24T21:00:00:Z","depth":"4","parameterNumber":3,"parameterNumberName":"V-component_of_CURRENTS"},"data":[-0.0886,-0.1013,-0.1073,-0.1293,-0.1424,-0.1634,-0.1723,-0.1765,-0.1673,-0.1667,-0.145,-0.1388,-0.1017,-0.1248,-0.0673,-0.061,-0.0119,-0.0229,-0.0222,0.06,0.0631,0.0658,0.0417,0,0,0,0,0,-0.0848,-0.0925,-0.1087,-0.1271,-0.1461,-0.1561,-0.1713,-0.177,-0.1816,-0.1726,-0.1704,-0.1479,-0.111,-0.0984,-0.0689,-0.073,-0.0035,-0.0383,0.0315,0.0619,0.0653,0.0407,0,0,0,0,0,0,-0.0805,-0.0889,-0.1,-0.1168,-0.1368,-0.152,-0.1616,-0.1665,-0.1745,-0.1745,-0.1714,-0.15,-0.1324,-0.0934,-0.0619,-0.0306,-0.0047,0.0239,0.0291,0.0327,0.007,-0.0305,-0.033,0,0,0,0,0,-0.0744,-0.0792,-0.0894,-0.1076,-0.1236,-0.1424,-0.1571,-0.1644,-0.1727,-0.1794,-0.1699,-0.1495,-0.1248,-0.0752,-0.0482,0.0011,0.0509,0.0519,0.055,0.0806,0.0577,0.0636,0.0629,0.0782,0.0786,0.0788,0.079,0,-0.0668,-0.0725,-0.089,-0.0993,-0.1059,-0.1232,-0.1362,-0.1478,-0.1566,-0.1642,-0.167,-0.1475,-0.1321,-0.0709,-0.0272,0.0323,0.0425,0.06,0.0869,0.0628,0.0683,0.0668,0.0651,0.0817,0.0815,0.0813,0.0811,0,-0.063,-0.0659,-0.0792,-0.0917,-0.0976,-0.1095,-0.1292,-0.1415,-0.146,-0.1571,-0.1548,-0.1397,-0.101,-0.0625,0.0057,0.031,0.0726,0.0774,0.0727,0.0798,0.0716,0.0688,0.0862,0.0852,0.0844,0.0837,0.0831,0,-0.0565,-0.0651,-0.072,-0.0775,-0.0944,-0.0983,-0.1164,-0.1215,-0.1312,-0.1401,-0.1262,-0.1251,-0.0649,-0.0377,0.0075,0.046,0.0672,0.0803,0.0874,0.1057,0.103,0.1134,0.1113,0.1307,0.1305,0.1303,0.1302,0,-0.049,-0.0583,-0.0674,-0.0709,-0.0812,-0.0897,-0.0957,-0.1036,-0.1116,-0.113,-0.1166,-0.0906,-0.0771,-0.0272,0.0135,0.0264,0.0711,0.0927,0.085,0.0825,0.1117,0.1098,0.13,0.13,0.13,0.1299,0.1299,0,-0.0422,-0.0459,-0.0561,-0.0685,-0.071,-0.0776,-0.0906,-0.0949,-0.0993,-0.0995,-0.093,-0.082,-0.0619,-0.0438,0.0114,0.0066,0.0365,0.0607,0.0625,0.0359,0.0399,0.0712,0.0776,0.0772,0.0767,0.0763,0.076,0,-0.0354,-0.0422,-0.0421,-0.053,-0.0575,-0.057,-0.0642,-0.0672,-0.0672,-0.0722,-0.0624,-0.0621,-0.0444,-0.0405,-0.0173,0.012,0.0294,0.0122,0.067,0.0679,0.0402,0.0403,0.0496,0.07,0.0708,0.0713,0.0717,0,-0.0291,-0.0308,-0.0315,-0.0367,-0.0361,-0.0382,-0.0434,-0.0468,-0.0533,-0.0444,-0.0515,-0.0447,-0.0362,-0.0349,-0.0258,-0.0046,0.0192,0.0174,0.0189,0.0268,0.0712,0.037,0.0372,0.0462,0.0469,0.0474,0.0676,0,-0.0239,-0.0265,-0.0269,-0.0282,-0.0291,-0.0299,-0.0278,-0.0289,-0.0259,-0.0244,-0.0247,-0.0184,-0.0171,-0.0157,-0.0102,0.0006,0.0092,0.0203,0.0285,0.0293,0.0364,0.0396,0.0043,0.0045,0.0046,0.0047,0,0,-0.0185,-0.0201,-0.0145,-0.0162,-0.0173,-0.0091,-0.0131,-0.0114,-0.007,-0.0091,-0.0029,-0.0008,0.0007,-0.0019,-0.0026,-0.0014,0.0164,0.0044,0.0239,0.026,0.0279,0.0351,0.038,0.0049,0.0049,0.005,0.005,0,-0.0149,-0.0131,-0.0147,-0.0134,-0.009,-0.0064,-0.006,-0.0007,0.0003,-0.0005,0.0042,0.0047,0.008,0.0076,0.0081,0.0014,0.0192,0.0048,-0.0003,0.0242,0.0261,0.0278,0.0351,0.0376,0.0053,0.0053,0.0053,0,-0.0108,-0.0077,-0.0083,-0.0047,-0.0015,-0.0026,0.0052,0.0077,0.0052,0.0141,0.0118,0.0159,0.0185,0.0171,0.0169,0.0197,0.0254,0.0168,0.0161,0.015,0.0409,0.0426,0.0442,0.0256,0.0257,0.0257,0,0,-0.0082,-0.0084,-0.0031,-0.0035,-0.0018,0.0037,0.0057,0.0088,0.0126,0.0139,0.0172,0.0194,0.0198,0.0212,0.0218,0.021,0.032,0.0191,0.0182,0.0174,0.0158,0.0411,0.0426,0.0259,0.0259,0.0259,0,0,-0.006,-0.0013,-0.0002,-0.0003,0.0032,0.0098,0.0105,0.0137,0.0159,0.0163,0.0215,0.0225,0.0216,0.0243,0.0265,0.0233,0.0273,0.027,0.0219,0.0208,0.0199,0.0178,0.0315,0,0,0,0,0,-0.0006,-0.002,-0.0013,-0.0005,0.0044,0.0084,0.0092,0.0144,0.0168,0.0165,0.0197,0.0232,0.0258,0.0279,0.0285,0.0257,0.0285,0.0281,0.0276,0.0209,0.0196,0.0186,0,0,0,0,0,0,-0.0003,0.0004,-0.0011,0.005,0.0064,0.0084,0.0129,0.0142,0.017,0.0176,0.0224,0.0233,0.0266,0.0279,0.0284,0.0256,0.0314,0.0283,0.0279,0.0276,0.0204,0.0194,0.0185,0,0,0,0,0,0.0,0.0006,0.0066,0.0052,0.0063,0.0131,0.013,0.0141,0.0158,0.0215,0.0225,0.0199,0.0264,0.0271,0.0282,0.0252,0.0311,0.0312,0.0281,0.0278,0.0275,0.0199,0,0,0,0,0,0,0.0003,0.001,0.007,0.0077,0.0064,0.0131,0.014,0.014,0.0194,0.0206,0.0191,0.0196,0.0262,0.0269,0.0274,0.0248,0.0308,0.031,0.0311,0.0279,0.0276,0.0274,0,0,0,0,0,0,0.0008,0.0014,0.0073,0.0086,0.0094,0.0131,0.0139,0.0152,0.0194,0.0166,0.0173,0.0193,0.0259,0.0266,0.0271,0.0288,0.0306,0.0308,0.0309,0.031,0.0277,0.0275,0,0,0,0,0,0,0.0012,0.0018,0.0084,0.009,0.0097,0.0169,0.0143,0.0188,0.021,0.0162,0.0214,0.0215,0.0256,0.0261,0.0268,0.0284,0.0287,0.0306,0.0307,0.0308,0.0309,0,0,0,0,0,0,0,0.0016,-0.0039,0.0039,0.0093,0.01,0.0139,0.014,0.0141,0.021,0.0212,0.0213,0.0215,0.0297,0.0298,0.03,0.028,0,0,0.0306,0.0307,0,0,0,0,0,0,0,0,-0.0039,-0.0039,0.0039,0.0041,0.0043,0.0139,0.014,0.0141,0.021,0.0212,0.0213,0.0214,0.0297,0.0299,0.03,0,0,0,0,0,0,0,0,0,0,0,0,0,0,0,0.004,0.0041,0,0.0139,0.014,0.014,0.021,0.0211,0.0213,0.0214,0.0298,0.0299,0.03,0,0,0,0,0,0,0,0,0,0,0,0,0,0,0,0,0,0,0,0,0,0,0,0,0,0,0,0,0,0,0,0,0,0,0,0,0,0,0,0,0,0,0,0,0,0,0,0,0,0,0,0,0,0,0,0,0,0,0,0,0,0,0,0,0,0,0,0,0]}]]]